Weather History for KGMU - February, 2011

Change the Weather History Date:

Saturday, February 26, 2011

  Actual Average Record
Temperature  
Mean Temperature 48 °F -  
Max Temperature 61 °F 56 °F 72 °F (2001)
Min Temperature 36 °F 37 °F 27 °F (1993)
Degree Days  
Heating Degree Days 16    
Moisture  
Dew Point 31 °F    
Average Humidity 55    
Maximum Humidity 76    
Minimum Humidity 35    
Precipitation  
Precipitation 0.00 in - - ()
Sea Level Pressure  
Sea Level Pressure 30.12 in    
Wind  
Wind Speed 8 mph (NNW)    
Max Wind Speed 12 mph    
Max Gust Speed -    
Visibility 10 miles    
Events      
Averages and records for this station are not official NWS values.
T = Trace of Precipitation, MM = Missing Value Source: NWS Daily Summary

Daily Weather History Graph

Daily Weather History Graph

Search for Another Location

Airport or City:

Trip Planner

Search our weather history database for the weather conditions in past years. The results will help you decide how hot, cold, wet, or windy it might be!

Date:

Astronomy

Feb. 26, 2011 Rise Set
Actual Time 7:02 AM EST 6:22 PM EST
Civil Twilight 6:37 AM EST 6:47 PM EST
Nautical Twilight 6:08 AM EST 7:17 PM EST
Astronomical Twilight 5:38 AM EST 7:46 PM EST
Moon 2:51 AM EST (2/26) 12:48 PM EST (2/26)
Length of Visible Light 12h 10m
Length of Day
11h 19m
Waning Crescent, 32% of the Moon is Illuminated
Feb 26
Waning Crescent
Mar 4
New
Mar 12
First Quarter
Mar 19
Full
Mar 26
Last Quarter

Hourly Weather History & Observations

Time (EST) Temp. Windchill Dew Point Humidity Pressure Visibility Wind Dir Wind Speed Gust Speed Precip Events Conditions
12:53 AM 43.0 °F 38.2 °F 32.0 °F 65% 30.07 in 10.0 mi NE 8.1 mph - N/A   Clear
1:53 AM 42.1 °F 37.1 °F 32.0 °F 67% 30.09 in 10.0 mi East 8.1 mph - N/A   Clear
2:53 AM 41.0 °F 35.2 °F 32.0 °F 70% 30.09 in 10.0 mi ENE 9.2 mph - N/A   Clear
3:53 AM 39.9 °F 33.9 °F 30.9 °F 70% 30.11 in 10.0 mi ENE 9.2 mph - N/A   Clear
4:53 AM 37.9 °F 32.1 °F 30.0 °F 73% 30.15 in 10.0 mi ENE 8.1 mph - N/A   Clear
5:53 AM 37.0 °F 31.0 °F 30.0 °F 76% 30.17 in 10.0 mi NE 8.1 mph - N/A   Clear
6:53 AM 36.0 °F 29.0 °F 28.9 °F 76% 30.21 in 10.0 mi NNE 9.2 mph - N/A   Clear
7:53 AM 37.0 °F 29.3 °F 28.9 °F 73% 30.22 in 10.0 mi NNE 11.5 mph - N/A   Clear
8:53 AM 39.9 °F 33.4 °F 28.0 °F 63% 30.24 in 10.0 mi NE 10.4 mph - N/A   Clear
9:53 AM 44.1 °F 38.6 °F 27.0 °F 51% 30.24 in 10.0 mi ENE 10.4 mph - N/A   Clear
10:53 AM 46.9 °F - 27.0 °F 46% 30.22 in 10.0 mi NE 6.9 mph - N/A   Clear
11:53 AM 50.0 °F - 27.0 °F 41% 30.20 in 10.0 mi Calm Calm - N/A   Clear
12:53 PM 53.1 °F - 28.0 °F 38% 30.15 in 10.0 mi Calm Calm - N/A   Clear
1:53 PM 57.0 °F - 30.0 °F 36% 30.11 in 10.0 mi SSW 8.1 mph - N/A   Clear
2:53 PM 59.0 °F - 32.0 °F 36% 30.07 in 10.0 mi WSW 8.1 mph - N/A   Clear
3:53 PM 60.1 °F - 33.1 °F 36% 30.05 in 10.0 mi SW 9.2 mph - N/A   Clear
4:53 PM 61.0 °F - 33.1 °F 35% 30.04 in 10.0 mi SW 10.4 mph - N/A   Clear
5:53 PM 57.9 °F - 34.0 °F 41% 30.05 in 10.0 mi WSW 10.4 mph - N/A   Clear
6:53 PM 55.0 °F - 34.0 °F 45% 30.07 in 10.0 mi WSW 9.2 mph - N/A   Clear
7:53 PM 53.1 °F - 35.1 °F 50% 30.07 in 10.0 mi WSW 5.8 mph - N/A   Clear
8:53 PM 52.0 °F - 35.1 °F 53% 30.07 in 10.0 mi SW 4.6 mph - N/A   Clear
9:53 PM 50.0 °F - 35.1 °F 57% 30.06 in 10.0 mi WSW 4.6 mph - N/A   Clear
10:53 PM 50.0 °F - 35.1 °F 57% 30.06 in 10.0 mi WSW 3.5 mph - N/A   Clear
11:53 PM 50.0 °F - 36.0 °F 59% 30.05 in 10.0 mi West 3.5 mph - N/A   Clear